Flag for Switzerland Weather past 2 weeks in Winterthur, Switzerland

Now
57 °F

Fog.


Feels Like: 57 °F
Forecast: 44 / 65 °F
Wind: 3 mph from Northwest

Location: Zurich-Kloten

Current Time: Oct 2, 2014 at 9:14:29 AM

Latest Report: Oct 2, 2014 at 8:50 AM


Visibility: 2 mi

Pressure: 30.36 "Hg

Humidity: 94%

Dew point: 55 °F

Location of WinterthurLocation

Historic Weather in Winterthur — Graph

°F

Winterthur temperature yesterday

Maximum temperature yesterday: 70 °F (at 4:20 PM)
Minimum temperature yesterday: 57 °F (at 1:20 AM)
Average temperature yesterday: 62 °F

Past Weeks' High & Low Weather Summary

 TemperatureHumidityPressure
High75 °F (Sep 29, 4:20 PM)100% (Sep 17, 8:20 AM)30.36 "Hg (Sep 17, 8:20 AM)
Low39 °F (Sep 23, 4:50 AM)45% (Sep 23, 5:50 PM)29.86 "Hg (Sep 17, 4:50 PM)
Average58 °F85%30.16 "Hg
* Reported Sep 17 8:20 AM — Oct 2 8:20 AM, Winterthur, Weather by CustomWeather, © 2014

Note: Actual official high and low records may vary slightly from our data, if they occured in-between our weather recording intervals... More about our weather records

Advertising

Winterthur weather history for previous 24 hours

 ConditionsComfort  
Time TempWeatherWind HumidityBarometerVisibility
8:20 AM
Oct 2
57 °FFog.6 mph94%30.36 "Hg2 mi
7:50 AM55 °FFog.5 mph100%30.36 "Hg2 mi
7:20 AM54 °FFog.2 mph100%30.36 "Hg2 mi
6:50 AM54 °FFog.2 mph100%30.36 "Hg2 mi
6:20 AM54 °FFog.1 mph100%30.36 "Hg2 mi
5:50 AM50 °FPartly cloudy.1 mph100%30.36 "Hg1 mi
5:20 AM50 °FPassing clouds.3 mph100%30.36 "Hg1 mi
4:50 AM50 °FFog.2 mph100%30.36 "Hg3 mi
4:20 AM52 °FPassing clouds.1 mph100%30.36 "Hg2 mi
3:50 AM52 °FPassing clouds.2 mph100%30.36 "Hg2 mi
3:20 AM54 °FFog.No wind100%30.36 "Hg3 mi
2:50 AM54 °FFog.2 mph100%30.36 "Hg4 mi
1:50 AM55 °FFog.5 mph100%30.36 "Hg4 mi
1:20 AM57 °FFog.3 mph94%30.36 "Hg4 mi
12:50 AM57 °FPartly cloudy.3 mph100%30.36 "Hg4 mi
12:20 AM59 °FPartly cloudy.3 mph94%30.36 "Hg4 mi
11:50 PM
Oct 1
59 °FPassing clouds.2 mph94%30.36 "Hg4 mi
11:20 PM61 °FPartly cloudy.2 mph94%30.36 "Hg4 mi
10:50 PM59 °FPartly cloudy.3 mph100%30.36 "Hg4 mi
10:20 PM59 °FClear.1 mph94%30.36 "Hg4 mi
9:50 PM59 °FPassing clouds.2 mph100%30.36 "Hg4 mi
9:20 PM59 °FPassing clouds.1 mph100%30.33 "Hg4 mi
8:50 PM61 °FFog.1 mph94%30.33 "Hg5 mi
8:20 PM61 °FFog.2 mph94%30.33 "Hg6 mi
7:50 PM63 °FSunny.2 mph88%30.33 "Hg10 mi
7:20 PM63 °FScattered showers. Partly sunny.2 mph94%30.33 "HgN/A
6:50 PM63 °FScattered showers. Partly sunny.3 mph94%30.33 "Hg6 mi
6:20 PM63 °FRain showers. Partly sunny.3 mph94%30.30 "Hg6 mi
5:50 PM64 °FScattered showers. Partly sunny.6 mph88%30.30 "HgN/A
5:20 PM68 °FBroken clouds.3 mph69%30.30 "HgN/A
4:50 PM68 °FScattered clouds.5 mph69%30.30 "HgN/A
4:20 PM70 °FPassing clouds.5 mph64%30.30 "HgN/A
3:50 PM68 °FPassing clouds.5 mph69%30.30 "HgN/A
3:20 PM68 °FPassing clouds.5 mph69%30.30 "HgN/A
2:50 PM68 °FPassing clouds.6 mph69%30.30 "HgN/A
2:20 PM66 °FPassing clouds.7 mph73%30.33 "HgN/A
1:50 PM68 °FPassing clouds.3 mph69%30.33 "HgN/A
1:20 PM66 °FScattered clouds.2 mph73%30.33 "HgN/A
12:50 PM66 °FScattered clouds.1 mph73%30.33 "HgN/A
12:20 PM66 °FPartly sunny.6 mph73%30.33 "HgN/A
11:50 AM64 °FBroken clouds.3 mph78%30.33 "Hg5 mi
11:20 AM63 °FBroken clouds.6 mph83%30.33 "Hg4 mi
10:50 AM63 °FFog.2 mph88%30.33 "Hg3 mi
10:20 AM61 °FScattered showers. Broken clouds.3 mph94%30.33 "Hg2 mi
9:50 AM61 °FScattered showers. Broken clouds.5 mph94%30.33 "Hg2 mi
9:20 AM61 °FLight rain. Partly sunny.2 mph94%30.33 "Hg1 mi
Weather by CustomWeather, © 2014

See weather overviewHow to use our weather pages